Location: Newark
(46.9000°N, 28.3500°E)
Time: 08:44:53
(UTC+00:00)

Explorer 7 - Pass Details

Date: 03 September 2019
Orbit: 485 x 680 km, 50.3° (Epoch: 22 September)

Event Time Altitude Azimuth Distance (km) Brightness Sun altitude
Rises 05:27:55 0° 267° (W) 3,033 10.0 19.5°
Reaches altitude 10° 05:30:20 10° 271° (W) 2,117 9.3 19.9°
Maximum altitude 05:35:12 60° 352° (N) 766 7.7 20.7°
Drops below altitude 10° 05:39:57 10° 73° (ENE) 2,063 10.9 21.5°
Sets 05:42:16 0° 77° (ENE) 2,949 11.6 21.9°
